Regional Weather Roundup
Issued by NWS

Home | Current Version | Previous Version | Graphics & Text | Print | Product List | Glossary Off
Versions: 1 2 3 4 5 6 7 8 9 10 11 12 13 14 15 16 17 18 19 20 21 22 23 24 25 26 27 28 29 30 31 32 33 34 35 36 37 38 39 40 41 42 43 44 45 46 47 48 49 50

857
ASUS43 KMKX 201810
RWRWI

WISCONSIN REGIONAL WEATHER ROUNDUP
NATIONAL WEATHER SERVICE MILWAUKEE/SULLIVAN WI
1200 PM CST FRI JAN 20 2017

NOTE: "FAIR" INDICATES FEW OR NO CLOUDS BELOW 12,000 FEET WITH NO
SIGNIFICANT WEATHER AND/OR OBSTRUCTIONS TO VISIBILITY.

WIZ001-002-006>008-014>016-023>028-201900-
NORTHWEST WISCONSIN

CITY           SKY/WX    TMP DP  RH WIND       PRES   REMARKS
SUPERIOR ARPT  DRIZZLE   35  35 100 E9        29.62F WCI  28
6HR MIN TEMP:  33; 6HR MAX TEMP:  35;

ASHLAND        CLOUDY    35  31  85 N6        29.65F FOG     WCI  30
6HR MIN TEMP:  32; 6HR MAX TEMP:  37; 6HR PCP: TRACE;

HAYWARD        LGT RAIN  37  35  92 E3        29.60F
6HR MIN TEMP:  34; 6HR MAX TEMP:  38; 6HR PCP:  0.05;

SIREN          CLOUDY    37  35  95 SE3       29.60F
6HR MIN TEMP:  35; 6HR MAX TEMP:  37; 6HR PCP:  0.03;

CUMBERLAND     CLOUDY    34  32  93 SE9       29.59F FOG     WCI  26
RICE LAKE      CLOUDY    36  35  96 SE6       29.62F FOG     WCI  31
6HR MIN TEMP:  34; 6HR MAX TEMP:  36;

CHETEK         CLOUDY    36  35  97 SE6       29.60F FOG     WCI  31
6HR MIN TEMP:  34; 6HR MAX TEMP:  36; 6HR PCP:  0.01;

LADYSMITH      DRIZZLE   37  36  96 E5        29.62F WCI  33
6HR MIN TEMP:  34; 6HR MAX TEMP:  37; 6HR PCP:  0.04;

EAU CLAIRE     CLOUDY    36  34  92 SE9       29.61F FOG     WCI  29
6HR MIN TEMP:  34; 6HR MAX TEMP:  36; 6HR PCP:  0.04;

MENOMONIE        N/A    N/A N/A N/A MISG        N/A
NEW RICHMOND   CLOUDY    35  35 100 SE5       29.60F FOG     WCI  31
6HR MIN TEMP:  34; 6HR MAX TEMP:  36; 6HR PCP:  0.02;

OSCEOLA        CLOUDY    37  37 100 SE9       29.63F WCI  30
6HR MIN TEMP:  35; 6HR MAX TEMP:  37; 6HR PCP:  0.01;

$$

WIZ003>005-009-010-017-018-201900-
NORTH CENTRAL WISCONSIN

CITY           SKY/WX    TMP DP  RH WIND       PRES   REMARKS
MANITOWISH WTR CLOUDY    35  35 100 CALM      29.64F
6HR MIN TEMP:  28; 6HR MAX TEMP:  35;

ARBOR VITAE    CLOUDY    37  35  93 CALM      29.64F
6HR MIN TEMP:  32; 6HR MAX TEMP:  37;

WOODRUFF       CLOUDY    37  35  93 CALM      29.64F
6HR MIN TEMP:  32; 6HR MAX TEMP:  37;

RHINELANDER    CLOUDY    35  35 100 E3        29.65F FOG
6HR MIN TEMP:  31; 6HR MAX TEMP:  35; 6HR PCP:  0.04;

EAGLE RIVER    CLOUDY    37  33  85 CALM      29.65F
6HR MIN TEMP:  29; 6HR MAX TEMP:  37;

LAND O LAKES   CLOUDY    38  32  76 CALM      29.66F
6HR MIN TEMP:  26; 6HR MAX TEMP:  38;

PHILLIPS       DRIZZLE   36  36  98 SE5       29.62F WCI  32
6HR MIN TEMP:  32; 6HR MAX TEMP:  36; 6HR PCP:  0.10;

TOMAHAWK       LGT RAIN  36  34  94 SE3       29.64F
6HR MIN TEMP:  31; 6HR MAX TEMP:  36;

MEDFORD        LGT RAIN  35  33  94 E8        29.62F WCI  28
6HR MIN TEMP:  32; 6HR MAX TEMP:  35;

MERRILL        DRIZZLE   36  35  97 SE3         N/A
6HR MIN TEMP:  32; 6HR MAX TEMP:  36; 6HR PCP:  0.08;

$$

WIZ029-030-035-036-043>047-201900-
CENTRAL WISCONSIN

CITY           SKY/WX    TMP DP  RH WIND       PRES   REMARKS
WAUSAU         CLOUDY    35  34  96 SE6       29.63F WCI  30
6HR MIN TEMP:  32; 6HR MAX TEMP:  35; 6HR PCP:  0.08;

MOSINEE        DRIZZLE   28  28 100 E8        29.65F WCI  20
MARSHFIELD     LGT RAIN  34  33  96 E9        29.60F FOG     WCI  27
6HR MIN TEMP:  33; 6HR MAX TEMP:  35; 6HR PCP: TRACE;

STEVENS POINT  CLOUDY    33  33 100 E8        29.65F FOG     WCI  26
6HR MIN TEMP:  31; 6HR MAX TEMP:  33;

WAUPACA        CLOUDY    37  36  94 CALM      29.67S FOG
6HR MIN TEMP:  34; 6HR MAX TEMP:  38;

WAUTOMA        LGT RAIN  35  34  96 NE10      29.65F FOG     WCI  27
6HR MIN TEMP:  33; 6HR MAX TEMP:  35;

WISC RAPIDS    LGT RAIN  35  34  96 E8        29.64F FOG     WCI  29
6HR MIN TEMP:  33; 6HR MAX TEMP:  35; 6HR PCP:  0.03;

CAMP DOUGLAS   CLOUDY    36  36 100 SE7       29.62F FOG     WCI  30
$$

WIZ011>013-019>022-031-037>040-048>050-201900-
NORTHEAST WISCONSIN

CITY           SKY/WX    TMP DP  RH WIND       PRES   REMARKS
ANTIGO         DRIZZLE   33  33 100 E6        29.64F WCI  28
6HR MIN TEMP:  31; 6HR MAX TEMP:  33; 6HR PCP:  0.01;

SHAWANO        LGT RAIN  35  34  95 E5        29.68F WCI  31
6HR MIN TEMP:  33; 6HR MAX TEMP:  35; 6HR PCP:  0.03;

OCONTO         CLOUDY    34  34  99 NE5       29.70F WCI  30
6HR MIN TEMP:  32; 6HR MAX TEMP:  34; 6HR PCP:  0.03;

STURGEON BAY   FOG       35  35 100 N6        29.69F VSB 1/2 WCI  30
6HR MIN TEMP:  32; 6HR MAX TEMP:  36; 6HR PCP:  0.01;

GREEN BAY      LGT RAIN  35  35 100 NE9       29.68F VSB 3/4 WCI  28
6HR MIN TEMP:  34; 6HR MAX TEMP:  35; 6HR PCP:  0.06;

MANITOWOC      CLOUDY    37  36  96 NE3       29.68F FOG
6HR MIN TEMP:  35; 6HR MAX TEMP:  37; 6HR PCP:  0.02;

APPLETON       DRIZZLE   34  34 100 NE6       29.66F FOG     WCI  29
CLINTONVILLE   LGT RAIN  34  34 100 E5        29.68F WCI  30
OSHKOSH        CLOUDY    35  33  92 NE6       29.66F FOG     WCI  30
6HR MIN TEMP:  33; 6HR MAX TEMP:  35; 6HR PCP:  0.02;

$$

WIZ032>034-041-042-053>061-201900-
SOUTHWEST WISCONSIN

CITY           SKY/WX    TMP DP  RH WIND       PRES   REMARKS
LA CROSSE      CLOUDY    39  36  89 CALM      29.61F FOG
6HR MIN TEMP:  36; 6HR MAX TEMP:  40;

SPARTA         CLOUDY    35  35  99 CALM      29.63F FOG
6HR MIN TEMP:  33; 6HR MAX TEMP:  35; 6HR PCP:  0.01;

VIROQUA        CLOUDY    35  35 100 SE5       29.60F VSB 1/4 WCI  31
6HR MIN TEMP:  34; 6HR MAX TEMP:  35;

BOSCOBEL       CLOUDY    39  37  92 CALM      29.62F FOG
6HR MIN TEMP:  36; 6HR MAX TEMP:  39;

PRAIRIE DU CHI CLOUDY    37  37  97 CALM      29.61F FOG
6HR MIN TEMP:  33; 6HR MAX TEMP:  37; 6HR PCP:  0.01;

PLATTEVILLE    CLOUDY    38  38 100 SE7       29.62F WCI  32
6HR MIN TEMP:  35; 6HR MAX TEMP:  38;

$$

WIZ056-057-062-063-064-067-068-201900-
SOUTH CENTRAL WISCONSIN

CITY           SKY/WX    TMP DP  RH WIND       PRES   REMARKS
REEDSBURG      CLOUDY    36  36 100 E5        29.62F FOG     WCI  32
6HR MIN TEMP:  33; 6HR MAX TEMP:  36; 6HR PCP:  0.02;

BARABOO/DELLS  CLOUDY    35  35  99 E6        29.62F FOG     WCI  30
6HR MIN TEMP:  33; 6HR MAX TEMP:  35;

LONE ROCK      FOG       37  36  96 E9        29.63F VSB 1/2 WCI  30
6HR MIN TEMP:  35; 6HR MAX TEMP:  37;

MINERAL POINT  FOG       37  37 100 SE7       29.61F VSB 1/4 WCI  32
MADISON        DRIZZLE   37  35  92 E8        29.64F FOG     WCI  31
6HR MIN TEMP:  35; 6HR MAX TEMP:  37; 6HR PCP:  0.03;

MIDDLETON      CLOUDY    37  37 100 E7        29.64F VSB 1   WCI  32
6HR MIN TEMP:  35; 6HR MAX TEMP:  38;

WATERTOWN      CLOUDY    37  37 100 E8        29.64S FOG     WCI  31
6HR MIN TEMP:  35; 6HR MAX TEMP:  37; 6HR PCP:  0.05;

MONROE         FOG       36  36 100 E6        29.62F VSB<1/4 WCI  31
JANESVILLE     FOG       39  39 100 E3        29.63F VSB 3/4
$$

WIZ051-052-058>065-066-070>072-201900-
SOUTHEAST WISCONSIN

CITY           SKY/WX    TMP DP  RH WIND       PRES   REMARKS
MILWAUKEE      FOG       39  37  92 E8        29.65S VSB 1   WCI  33
6HR MIN TEMP:  38; 6HR MAX TEMP:  39; 6HR PCP:  0.08;

WAUKESHA       FOG       36  36 100 NE7       29.65F VSB 3/4 WCI  30
MILWAUKEE/TIMM CLOUDY    37  34  87 NE6       29.66F FOG     WCI  33
RACINE         CLOUDY    38  37  97 E5        29.67R FOG     WCI  34
6HR MIN TEMP:  37; 6HR MAX TEMP:  39; 6HR PCP:  0.03;

KENOSHA        FOG       38  38 100 E6        29.66S VSB 3/4 WCI  33
6HR MIN TEMP:  37; 6HR MAX TEMP:  39; 6HR PCP:  0.02;

FOND DU LAC    CLOUDY    37  34  89 E7        29.66F WCI  32
6HR MIN TEMP:  34; 6HR MAX TEMP:  38; 6HR PCP:  0.02;

SHEBOYGAN      CLOUDY    36  35  96 NE8       29.67F FOG     WCI  30
6HR MIN TEMP:  34; 6HR MAX TEMP:  36; 6HR PCP:  0.06;

WEST BEND      CLOUDY    36  36 100 NE9       29.65F FOG     WCI  29
JUNEAU         CLOUDY    36  35  97 NE10G16   29.64F FOG     WCI  28
6HR MIN TEMP:  33; 6HR MAX TEMP:  36;

$$

LSZ147-162-201900-
LAKE SUPERIOR

STATION/POSITION TIME  TEMP    WIND        PRES    WAVE
                       AIR SEA DIR/SP/G            HT/PER
                 (UTC) (F)     (DEG/KT/KT) (MB)    (FT/S)
DEVILS ISLAND    1700   35     100/  5/  6 1006.0R
PORT WING        1740   35      30/ 11/ 13 1004.4F
SAXON HARBOR     1740   34     340/  3/  3 1004.7F
$$

LMZ867-665-643>646-201900-
LAKE MICHIGAN

STATION/POSITION TIME  TEMP    WIND        PRES    WAVE
                       AIR SEA DIR/SP/G            HT/PER
                 (UTC) (F)     (DEG/KT/KT) (MB)    (FT/S)
NORTHPORT PIER   1740   33      70/  7/  9 1006.1F
SISTER BAY       1750   36     110/  6/ 10   N/A
KEWAUNEE LAKESHO 1748   36      20/  7/ 10 1004.7F
SHEBOYGAN LAKESH 1800   35



USA.gov is the U.S. government's official web portal to all federal, state and local government web resources and services.